Tracking 19286 objects as of 19-Nov-2018
HD Live streaming from Space Station
objects crossing your sky now

NAVSTAR 64 (USA 206)

Track NAVSTAR 64 (USA 206) now!
NAVSTAR 64 (USA 206) is classified as:


NORAD ID: 35752
Int'l Code: 2009-043A
Perigee: 20,043.9 km
Apogee: 20,332.9 km
Inclination: 54.4 °
Period: 717.9 minutes
Semi major axis: 26559 km
RCS: 6.3 m2 (large)
Launch date: August 17, 2009
Source: United States (US)
Launch site: AIR FORCE EASTERN TEST RANGE (AFETR)
PRN: 5
aabbcc
Your satellite tracking list
Your tracking list is empty




NASA's NSSDC Master Catalog

Two Line Element Set (TLE):
1 35752U 09043A   18321.74692052 +.00000091 +00000-0 +00000-0 0  9998
2 35752 054.3603 138.4802 0054411 039.3967 142.0853 02.00574642067830
Source of the keplerian elements: AFSPC